Weather History for Stuart, FL

Change the Weather History Date:

Sunday, November 11, 2012

  Actual Average Record
Temperature  
Mean Temperature 76 °F -  
Max Temperature 80 °F 80 °F 86 °F (1948)
Min Temperature 71 °F 63 °F 44 °F (1956)
Cooling Degree Days 10    
Growing Degree Days 26 (Base 50)    
Moisture  
Dew Point 56 °F    
Average Humidity 53    
Maximum Humidity 61    
Minimum Humidity 44    
Precipitation  
Precipitation 0.00 in - - ()
Sea Level Pressure  
Sea Level Pressure 30.24 in    
Wind  
Wind Speed 13 mph (East)    
Max Wind Speed 17 mph    
Max Gust Speed 24 mph    
Visibility 9 miles    
Events      
Averages and records for this station are not official NWS values.
T = Trace of Precipitation, MM = Missing Value Source: NWS Daily Summary

Daily Weather History Graph

Daily Weather History Graph

Search for Another Location

Airport:

Trip Planner

Search our weather history database for the weather conditions in past years. The results will help you decide how hot, cold, wet, or windy it might be!

Date:

Astronomy

Nov. 11, 2012 Rise Set
Actual Time 6:38 AM EST 5:31 PM EST
Civil Twilight 6:13 AM EST 5:55 PM EST
Nautical Twilight 5:46 AM EST 6:23 PM EST
Astronomical Twilight 5:18 AM EST 6:51 PM EST
Moon 4:01 AM EST (11/11) 3:45 PM EST (11/11)
Length of Visible Light 11h 41m
Length of Day
10h 52m
Waning Crescent, 7% of the Moon is Illuminated
Nov 11
Waning Crescent
Nov 13
New
Nov 20
First Quarter
Nov 28
Full
Dec 6
Last Quarter

Hourly Weather History & Observations

Time (EST) Temp. Heat Index Dew Point Humidity Pressure Visibility Wind Dir Wind Speed Gust Speed Precip Events Conditions
12:15 AM 71.6 °F - 50.0 °F 46% 30.25 in 10.0 mi East 9.2 mph - N/A   Mostly Cloudy
12:35 AM 71.6 °F - 53.6 °F 53% 30.25 in 10.0 mi East 12.7 mph 18.4 mph N/A   Mostly Cloudy
12:55 AM 71.6 °F - 53.6 °F 53% 30.24 in 10.0 mi East 12.7 mph - N/A   Mostly Cloudy
1:15 AM 71.6 °F - 53.6 °F 53% 30.24 in 10.0 mi East 12.7 mph - N/A   Mostly Cloudy
1:35 AM 73.4 °F - 55.4 °F 53% 30.23 in 10.0 mi East 12.7 mph 18.4 mph N/A   Overcast
1:55 AM 71.6 °F - 55.4 °F 57% 30.23 in 10.0 mi East 12.7 mph - N/A   Overcast
2:15 AM 71.6 °F - 53.6 °F 53% 30.22 in 10.0 mi East 15.0 mph 18.4 mph N/A   Mostly Cloudy
2:35 AM 73.4 °F - 53.6 °F 50% 30.22 in 10.0 mi East 12.7 mph 19.6 mph N/A   Mostly Cloudy
2:55 AM 73.4 °F - 53.6 °F 50% 30.22 in 10.0 mi East 16.1 mph 20.7 mph N/A   Mostly Cloudy
3:15 AM 73.4 °F - 55.4 °F 53% 30.22 in 10.0 mi ESE 13.8 mph 24.2 mph N/A   Mostly Cloudy
3:35 AM 71.6 °F - 53.6 °F 53% 30.23 in 10.0 mi East 12.7 mph 16.1 mph N/A   Mostly Cloudy
3:55 AM 71.6 °F - 53.6 °F 53% 30.22 in 10.0 mi East 12.7 mph 19.6 mph N/A   Scattered Clouds
4:15 AM 73.4 °F - 51.8 °F 47% 30.22 in 10.0 mi East 12.7 mph 20.7 mph N/A   Clear
4:35 AM 71.6 °F - 51.8 °F 50% 30.22 in 10.0 mi East 10.4 mph 16.1 mph N/A   Clear
4:55 AM 71.6 °F - 51.8 °F 50% 30.22 in 10.0 mi East 16.1 mph 20.7 mph N/A   Clear
5:15 AM 71.6 °F - 51.8 °F 50% 30.23 in 10.0 mi East 15.0 mph 19.6 mph N/A   Scattered Clouds
6:47 AM 73.4 °F - 57.2 °F 57% 30.24 in 7.0 mi East 11.5 mph 18.4 mph N/A   Scattered Clouds
7:47 AM 75.2 °F - 55.4 °F 50% 30.25 in 10.0 mi East 13.8 mph - N/A   Scattered Clouds
8:47 AM 77.0 °F - 57.2 °F 50% 30.27 in 10.0 mi East 16.1 mph 20.7 mph N/A   Scattered Clouds
9:47 AM 78.8 °F - 55.4 °F 44% 30.28 in 10.0 mi East 16.1 mph 24.2 mph N/A   Mostly Cloudy
10:47 AM 78.8 °F - 55.4 °F 44% 30.29 in 7.0 mi ESE 17.3 mph 21.9 mph N/A   Mostly Cloudy
11:47 AM 80.6 °F 80.8 °F 57.2 °F 45% 30.28 in 7.0 mi East 16.1 mph 23.0 mph N/A   Scattered Clouds
1:47 PM 80.6 °F 80.8 °F 57.2 °F 45% 30.23 in 7.0 mi East 15.0 mph - N/A   Scattered Clouds
2:47 PM 80.6 °F 80.8 °F 57.2 °F 45% 30.22 in 7.0 mi East 13.8 mph - N/A   Scattered Clouds
3:47 PM 80.6 °F 80.8 °F 57.2 °F 45% 30.22 in 7.0 mi East 11.5 mph - N/A   Scattered Clouds
4:47 PM 77.0 °F - 57.2 °F 50% 30.22 in 7.0 mi East 10.4 mph - N/A   Scattered Clouds
5:47 PM 75.2 °F - 57.2 °F 53% 30.23 in 7.0 mi East 12.7 mph 20.7 mph N/A   Mostly Cloudy
6:47 PM 75.2 °F - 59.0 °F 57% 30.23 in 7.0 mi East 15.0 mph - N/A   Scattered Clouds
7:15 PM 75.2 °F - 59.0 °F 57% 30.24 in 10.0 mi East 15.0 mph 20.7 mph N/A   Scattered Clouds
7:35 PM 75.2 °F - 59.0 °F 57% 30.24 in 10.0 mi East 15.0 mph 20.7 mph N/A   Scattered Clouds
7:55 PM 75.2 °F - 57.2 °F 53% 30.25 in 10.0 mi East 15.0 mph - N/A   Scattered Clouds
8:15 PM 75.2 °F - 57.2 °F 53% 30.25 in 10.0 mi East 12.7 mph 19.6 mph N/A   Scattered Clouds
8:35 PM 75.2 °F - 59.0 °F 57% 30.25 in 10.0 mi East 13.8 mph 19.6 mph N/A   Scattered Clouds
8:55 PM 75.2 °F - 59.0 °F 57% 30.25 in 10.0 mi East 11.5 mph - N/A   Scattered Clouds
9:15 PM 75.2 °F - 59.0 °F 57% 30.25 in 10.0 mi East 12.7 mph 16.1 mph N/A   Scattered Clouds
9:35 PM 75.2 °F - 59.0 °F 57% 30.25 in 10.0 mi East 15.0 mph 20.7 mph N/A   Scattered Clouds
9:55 PM 75.2 °F - 59.0 °F 57% 30.25 in 10.0 mi East 15.0 mph 21.9 mph N/A   Mostly Cloudy
10:15 PM 75.2 °F - 57.2 °F 53% 30.25 in 10.0 mi East 13.8 mph 19.6 mph N/A   Scattered Clouds
10:35 PM 75.2 °F - 59.0 °F 57% 30.25 in 10.0 mi East 11.5 mph 20.7 mph N/A   Scattered Clouds
10:55 PM 75.2 °F - 60.8 °F 61% 30.25 in 10.0 mi East 15.0 mph 20.7 mph N/A   Mostly Cloudy
11:15 PM 75.2 °F - 60.8 °F 61% 30.24 in 10.0 mi East 13.8 mph 18.4 mph N/A   Overcast
11:35 PM 75.2 °F - 59.0 °F 57% 30.24 in 10.0 mi East 11.5 mph 20.7 mph N/A   Overcast
11:55 PM 75.2 °F - 60.8 °F 61% 30.23 in 10.0 mi East 10.4 mph - N/A   Mostly Cloudy